QPF
0.00 0.01 0.01 0.00 0.01 0.01 0.01 0.01 0.01 0.01 0.01 0.01 0.02 0.01 0.01 0.01 0.01 0.00 0.00 0.00 0.00 0.01 0.01 0.02 0.02 0.01 0.01 0.01 0.01 0.01 0.01 0.01 0.02 0.05 0.07 0.05 0.04 0.05 0.03 0.03 0.04 0.06 0.04 0.03
0.01 0.00 0.00 0.00 0.00 0.01 0.01 0.01 0.01 0.01 0.01 0.01 0.01 0.01 0.01 0.01 0.00 0.00 0.00 0.01 0.01 0.00 0.01 0.01 0.02 0.02 0.02 0.02 0.02 0.01 0.01 0.01 0.01 0.02 0.05 0.07 0.07 0.07 0.05 0.04 0.06 0.05 0.05 0.06
0.00 0.00 0.00 0.00 0.01 0.01 0.01 0.01 0.01 0.01 0.01 0.01 0.01 0.00 0.00 0.01 0.00 0.00 0.00 0.00 0.01 0.01 0.01 0.00 0.00 0.01 0.01 0.01 0.01 0.01 0.01 0.01 0.01 0.02 0.03 0.04 0.07 0.10 0.08 0.06 0.05 0.03 0.04 0.04
0.01 0.00 0.00 0.00 0.00 0.01 0.01 0.02 0.02 0.01 0.01 0.01 0.01 0.01 0.00 0.00 0.00 0.00 0.00 0.00 0.00 0.00 0.00 0.00 0.00 0.00 0.00 0.00 0.00 0.01 0.01 0.01 0.02 0.03 0.04 0.04 0.04 0.07 0.10 0.09 0.05 0.03 0.03 0.03
0.00 0.00 0.00 0.00 0.00 0.00 0.00 0.01 0.01 0.01 0.01 0.01 0.01 0.00 0.00 0.00 0.00 0.00 0.00 0.00 0.00 0.00 0.00 0.00 0.00 0.00 0.00 0.00 0.00 0.00 0.00 0.01 0.02 0.03 0.03 0.04 0.04 0.05 0.07 0.09 0.08 0.07 0.06 0.04
0.00 0.00 0.00 0.00 0.00 0.00 0.00 0.00 0.01 0.01 0.02 0.02 0.01 0.00 0.00 0.00 0.00 0.00 0.00 0.00 0.00 0.00 0.00 0.00 0.00 0.00 0.00 0.00 0.00 0.00 0.00 0.01 0.02 0.02 0.01 0.02 0.02 0.03 0.05 0.06 0.06 0.06 0.08 0.07
0.01 0.00 0.00 0.00 0.00 0.00 0.01 0.01 0.02 0.02 0.01 0.01 0.00 0.00 0.00 0.00 0.00 0.00 0.00 0.00 0.00 0.00 0.00 0.00 0.00 0.00 0.00 0.00 0.00 0.01 0.01 0.01 0.02 0.01 0.01 0.01 0.01 0.01 0.01 0.02 0.04 0.06 0.07 0.08
0.01 0.01 0.00 0.00 0.00 0.00 0.00 0.01 0.02 0.01 0.01 0.00 0.00 0.00 0.00 0.00 0.00 0.00 0.00 0.00 0.00 0.00 0.00 0.00 0.00 0.00 0.00 0.00 0.01 0.01 0.01 0.01 0.01 0.01 0.01 0.01 0.01 0.01 0.01 0.01 0.01 0.02 0.03 0.05
0.01 0.01 0.00 0.00 0.00 0.00 0.00 0.01 0.01 0.02 0.01 0.00 0.00 0.00 0.00 0.00 0.00 0.00 0.00 0.00 0.00 0.00 0.00 0.00 0.00 0.00 0.00 0.00 0.00 0.00 0.00 0.00 0.00 0.00 0.01 0.01 0.01 0.01 0.01 0.01 0.01 0.01 0.01 0.02
0.01 0.02 0.01 0.00 0.00 0.00 0.00 0.00 0.01 0.02 0.02 0.01 0.00 0.00 0.00 0.00 0.00 0.00 0.00 0.00 0.00 0.00 0.00 0.00 0.00 0.00 0.00 0.00 0.00 0.00 0.00 0.00 0.00 0.00 0.00 0.01 0.01 0.01 0.01 0.01 0.01 0.01 0.01 0.01
0.02 0.03 0.02 0.01 0.01 0.01 0.01 0.01 0.01 0.02 0.02 0.01 0.00 0.00 0.00 0.00 0.00 0.00 0.00 0.00 0.00 0.00 0.00 0.00 0.00 0.00 0.00 0.00 0.00 0.00 0.00 0.00 0.00 0.00 0.00 0.01 0.01 0.00 0.00 0.00 0.00 0.00 0.01 0.01
0.02 0.03 0.03 0.02 0.01 0.01 0.01 0.01 0.01 0.03 0.02 0.01 0.01 0.00 0.00 0.00 0.00 0.00 0.00 0.00 0.00 0.00 0.00 0.00 0.00 0.00 0.00 0.00 0.00 0.00 0.00 0.00 0.00 0.00 0.00 0.00 0.00 0.00 0.00 0.00 0.00 0.00 0.00 0.01
0.05 0.05 0.05 0.03 0.02 0.01 0.01 0.01 0.01 0.02 0.03 0.02 0.01 0.01 0.00 0.00 0.00 0.00 0.00 0.00 0.01 0.01 0.01 0.01 0.01 0.00 0.00 0.00 0.00 0.00 0.00 0.00 0.00 0.00 0.00 0.00 0.00 0.00 0.00 0.00 0.00 0.00 0.00 0.01
0.04 0.06 0.05 0.04 0.02 0.02 0.02 0.02 0.02 0.04 0.05 0.03 0.01 0.00 0.00 0.00 0.00 0.00 0.00 0.00 0.00 0.01 0.01 0.01 0.01 0.01 0.01 0.00 0.00 0.00 0.00 0.00 0.00 0.00 0.00 0.00 0.00 0.01 0.01 0.00 0.00 0.00 0.01 0.01
0.02 0.03 0.03 0.03 0.03 0.03 0.02 0.02 0.02 0.03 0.03 0.03 0.02 0.01 0.01 0.01 0.01 0.01 0.01 0.00 0.00 0.00 0.00 0.01 0.01 0.01 0.01 0.01 0.00 0.00 0.01 0.00 0.00 0.00 0.01 0.01 0.01 0.01 0.01 0.01 0.01 0.01 0.01 0.01
0.01 0.02 0.02 0.02 0.02 0.02 0.02 0.02 0.01 0.02 0.02 0.02 0.02 0.01 0.01 0.01 0.01 0.01 0.01 0.01 0.01 0.01 0.01 0.01 0.01 0.01 0.01 0.01 0.01 0.01 0.01 0.01 0.01 0.01 0.01 0.01 0.01 0.01 0.01 0.01 0.01 0.01 0.01 0.01
0.01 0.02 0.02 0.02 0.01 0.01 0.01 0.01 0.01 0.01 0.02 0.02 0.01 0.01 0.01 0.01 0.01 0.01 0.01 0.01 0.01 0.01 0.01 0.01 0.01 0.01 0.01 0.01 0.01 0.01 0.01 0.01 0.01 0.00 0.00 0.00 0.00 0.00 0.01 0.01 0.01 0.01 0.01 0.01
0.02 0.02 0.03 0.03 0.02 0.02 0.01 0.00 0.01 0.01 0.01 0.01 0.01 0.01 0.01 0.01 0.01 0.01 0.01 0.01 0.01 0.01 0.01 0.01 0.01 0.01 0.01 0.01 0.01 0.01 0.01 0.01 0.00 0.00 0.00 0.00 0.00 0.00 0.00 0.00 0.00 0.01 0.01 0.01
0.02 0.03 0.05 0.04 0.03 0.02 0.01 0.00 0.00 0.01 0.01 0.01 0.01 0.01 0.01 0.01 0.02 0.01 0.01 0.01 0.01 0.01 0.01 0.01 0.01 0.01 0.01 0.01 0.01 0.01 0.01 0.01 0.00 0.00 0.00 0.00 0.00 0.00 0.00 0.00 0.00 0.01 0.01 0.01
0.02 0.03 0.07 0.06 0.04 0.02 0.00 0.00 0.00 0.00 0.01 0.01 0.00 0.00 0.00 0.00 0.01 0.01 0.00 0.00 0.01 0.01 0.01 0.01 0.01 0.01 0.01 0.01 0.01 0.01 0.01 0.01 0.01 0.00 0.00 0.00 0.00 0.01 0.01 0.01 0.01 0.01 0.01 0.01
0.02 0.04 0.06 0.05 0.04 0.02 0.01 0.00 0.00 0.01 0.02 0.00 0.00 0.00 0.00 0.00 0.00 0.00 0.00 0.00 0.00 0.00 0.00 0.00 0.00 0.01 0.01 0.01 0.01 0.01 0.00 0.00 0.00 0.00 0.01 0.01 0.01 0.01 0.01 0.01 0.01 0.01 0.01 0.01
0.01 0.02 0.02 0.02 0.04 0.02 0.01 0.00 0.01 0.01 0.01 0.00 0.00 0.00 0.00 0.00 0.00 0.00 0.00 0.00 0.00 0.00 0.00 0.00 0.00 0.00 0.00 0.00 0.00 0.00 0.00 0.00 0.00 0.00 0.00 0.01 0.01 0.01 0.01 0.01 0.01 0.01 0.01 0.01
0.01 0.01 0.01 0.02 0.02 0.02 0.01 0.00 0.00 0.00 0.00 0.00 0.00 0.00 0.00 0.00 0.00 0.00 0.00 0.00 0.00 0.00 0.00 0.00 0.00 0.00 0.00 0.00 0.00 0.00 0.00 0.00 0.00 0.00 0.00 0.01 0.01 0.01 0.01 0.01 0.01 0.01 0.01 0.01
0.02 0.02 0.02 0.02 0.02 0.01 0.01 0.01 0.01 0.00 0.00 0.00 0.00 0.00 0.00 0.00 0.00 0.00 0.00 0.00 0.00 0.00 0.00 0.00 0.00 0.00 0.00 0.00 0.00 0.01 0.01 0.01 0.00 0.00 0.00 0.00 0.00 0.01 0.01 0.01 0.01 0.01 0.01 0.01
0.01 0.02 0.02 0.02 0.01 0.01 0.01 0.01 0.00 0.00 0.00 0.00 0.00 0.00 0.00 0.00 0.00 0.00 0.00 0.00 0.00 0.00 0.00 0.00 0.00 0.00 0.01 0.01 0.01 0.01 0.01 0.01 0.01 0.01 0.01 0.00 0.00 0.00 0.00 0.01 0.01 0.01 0.01 0.01
0.01 0.02 0.02 0.02 0.01 0.01 0.01 0.01 0.01 0.01 0.01 0.01 0.01 0.01 0.01 0.01 0.01 0.01 0.01 0.01 0.01 0.01 0.01 0.01 0.01 0.01 0.01 0.01 0.01 0.01 0.01 0.01 0.01 0.01 0.01 0.00 0.00 0.00 0.01 0.01 0.01 0.01 0.01 0.01
MSLP
1020.37 1020.51 1020.61 1020.66 1020.68 1020.65 1020.58 1020.45 1020.23 1019.90 1019.47 1018.92 1018.28 1017.57 1016.85 1016.16 1015.54 1015.01 1014.60 1014.31 1014.13 1014.04 1014.03 1014.10 1014.25 1014.48 1014.80 1015.23 1015.78 1016.44 1017.19 1018.01 1018.85 1019.68 1020.45 1021.15 1021.75 1022.26 1022.70 1023.09 1023.47 1023.86 1024.29 1024.77
1020.52 1020.58 1020.61 1020.62 1020.63 1020.63 1020.63 1020.59 1020.46 1020.20 1019.79 1019.22 1018.50 1017.68 1016.80 1015.94 1015.16 1014.50 1014.00 1013.65 1013.44 1013.34 1013.34 1013.39 1013.49 1013.66 1013.89 1014.23 1014.68 1015.25 1015.95 1016.75 1017.61 1018.47 1019.31 1020.08 1020.75 1021.31 1021.80 1022.23 1022.63 1023.05 1023.50 1024.01
1020.67 1020.65 1020.61 1020.58 1020.59 1020.64 1020.72 1020.76 1020.72 1020.53 1020.15 1019.56 1018.77 1017.83 1016.81 1015.81 1014.89 1014.12 1013.53 1013.14 1012.91 1012.81 1012.78 1012.81 1012.86 1012.93 1013.06 1013.26 1013.59 1014.05 1014.67 1015.41 1016.26 1017.15 1018.03 1018.85 1019.59 1020.23 1020.77 1021.24 1021.69 1022.14 1022.62 1023.17
1020.86 1020.77 1020.67 1020.62 1020.64 1020.74 1020.88 1021.02 1021.05 1020.92 1020.55 1019.93 1019.06 1018.01 1016.87 1015.73 1014.69 1013.83 1013.18 1012.75 1012.50 1012.39 1012.35 1012.33 1012.31 1012.28 1012.28 1012.34 1012.52 1012.85 1013.36 1014.03 1014.84 1015.73 1016.63 1017.51 1018.30 1019.00 1019.60 1020.13 1020.62 1021.12 1021.65 1022.23
1021.11 1020.97 1020.84 1020.77 1020.81 1020.96 1021.17 1021.37 1021.45 1021.34 1020.97 1020.29 1019.35 1018.19 1016.93 1015.67 1014.54 1013.60 1012.90 1012.44 1012.18 1012.05 1011.98 1011.91 1011.81 1011.68 1011.54 1011.45 1011.48 1011.67 1012.06 1012.64 1013.39 1014.25 1015.17 1016.07 1016.91 1017.66 1018.32 1018.91 1019.46 1020.01 1020.58 1021.20
1021.40 1021.23 1021.09 1021.04 1021.11 1021.30 1021.55 1021.79 1021.89 1021.77 1021.35 1020.61 1019.58 1018.32 1016.95 1015.60 1014.38 1013.39 1012.65 1012.17 1011.89 1011.74 1011.64 1011.51 1011.33 1011.08 1010.81 1010.58 1010.46 1010.51 1010.78 1011.26 1011.94 1012.77 1013.67 1014.58 1015.45 1016.25 1016.96 1017.60 1018.21 1018.81 1019.43 1020.09
1021.67 1021.51 1021.38 1021.36 1021.47 1021.69 1021.98 1022.22 1022.30 1022.14 1021.65 1020.83 1019.69 1018.34 1016.88 1015.46 1014.19 1013.16 1012.40 1011.90 1011.61 1011.43 1011.29 1011.10 1010.83 1010.48 1010.09 1009.73 1009.48 1009.40 1009.55 1009.94 1010.54 1011.32 1012.19 1013.10 1013.98 1014.81 1015.56 1016.25 1016.91 1017.57 1018.24 1018.95
1021.84 1021.70 1021.62 1021.65 1021.81 1022.06 1022.35 1022.57 1022.61 1022.37 1021.79 1020.87 1019.65 1018.22 1016.70 1015.24 1013.94 1012.90 1012.14 1011.63 1011.32 1011.11 1010.91 1010.66 1010.30 1009.86 1009.37 1008.89 1008.53 1008.34 1008.40 1008.70 1009.23 1009.95 1010.78 1011.67 1012.55 1013.40 1014.18 1014.91 1015.61 1016.31 1017.03 1017.79
1021.84 1021.76 1021.75 1021.84 1022.04 1022.31 1022.59 1022.76 1022.72 1022.38 1021.71 1020.70 1019.41 1017.93 1016.38 1014.92 1013.64 1012.61 1011.86 1011.35 1011.02 1010.78 1010.53 1010.20 1009.77 1009.24 1008.66 1008.10 1007.64 1007.37 1007.35 1007.57 1008.04 1008.70 1009.49 1010.35 1011.22 1012.06 1012.85 1013.61 1014.35 1015.09 1015.85 1016.64
1021.65 1021.64 1021.71 1021.87 1022.11 1022.39 1022.62 1022.72 1022.58 1022.15 1021.38 1020.29 1018.95 1017.46 1015.94 1014.52 1013.29 1012.31 1011.59 1011.09 1010.75 1010.46 1010.16 1009.76 1009.25 1008.65 1007.99 1007.37 1006.85 1006.53 1006.44 1006.61 1007.01 1007.61 1008.35 1009.17 1010.01 1010.84 1011.63 1012.40 1013.16 1013.92 1014.71 1015.52
1021.31 1021.39 1021.54 1021.76 1022.02 1022.27 1022.44 1022.45 1022.20 1021.65 1020.80 1019.66 1018.31 1016.85 1015.40 1014.06 1012.92 1012.02 1011.35 1010.88 1010.52 1010.19 1009.83 1009.36 1008.78 1008.12 1007.41 1006.75 1006.19 1005.83 1005.70 1005.82 1006.17 1006.72 1007.40 1008.16 1008.96 1009.76 1010.54 1011.31 1012.07 1012.85 1013.64 1014.46
1020.92 1021.09 1021.30 1021.56 1021.82 1022.02 1022.10 1021.98 1021.61 1020.95 1020.02 1018.86 1017.54 1016.15 1014.81 1013.60 1012.58 1011.78 1011.17 1010.73 1010.36 1010.00 1009.57 1009.04 1008.41 1007.69 1006.95 1006.26 1005.69 1005.31 1005.16 1005.24 1005.54 1006.02 1006.63 1007.34 1008.08 1008.84 1009.59 1010.34 1011.10 1011.87 1012.66 1013.47
1020.62 1020.85 1021.11 1021.37 1021.58 1021.70 1021.65 1021.39 1020.88 1020.12 1019.13 1017.96 1016.70 1015.42 1014.21 1013.16 1012.28 1011.60 1011.07 1010.66 1010.28 1009.88 1009.40 1008.82 1008.14 1007.39 1006.64 1005.95 1005.38 1004.99 1004.82 1004.86 1005.11 1005.52 1006.06 1006.69 1007.36 1008.06 1008.77 1009.50 1010.23 1010.99 1011.76 1012.55
1020.50 1020.77 1021.04 1021.26 1021.38 1021.37 1021.17 1020.75 1020.09 1019.23 1018.19 1017.04 1015.85 1014.70 1013.66 1012.77 1012.05 1011.49 1011.04 1010.66 1010.29 1009.86 1009.34 1008.71 1008.00 1007.24 1006.49 1005.81 1005.26 1004.87 1004.69 1004.69 1004.88 1005.21 1005.66 1006.20 1006.79 1007.42 1008.08 1008.76 1009.47 1010.20 1010.95 1011.71
1020.60 1020.88 1021.10 1021.24 1021.24 1021.06 1020.68 1020.09 1019.29 1018.33 1017.26 1016.14 1015.05 1014.04 1013.16 1012.45 1011.88 1011.44 1011.08 1010.73 1010.36 1009.91 1009.36 1008.70 1007.98 1007.23 1006.50 1005.85 1005.32 1004.94 1004.74 1004.71 1004.82 1005.07 1005.42 1005.85 1006.34 1006.89 1007.48 1008.12 1008.79 1009.50 1010.22 1010.94
1020.87 1021.10 1021.25 1021.26 1021.10 1020.74 1020.17 1019.41 1018.48 1017.44 1016.35 1015.29 1014.30 1013.44 1012.73 1012.18 1011.76 1011.43 1011.14 1010.84 1010.47 1010.01 1009.44 1008.78 1008.07 1007.34 1006.65 1006.03 1005.53 1005.17 1004.95 1004.87 1004.91 1005.06 1005.29 1005.61 1005.99 1006.44 1006.96 1007.55 1008.18 1008.85 1009.54 1010.23
1021.16 1021.32 1021.35 1021.21 1020.87 1020.33 1019.58 1018.66 1017.63 1016.54 1015.47 1014.47 1013.60 1012.89 1012.35 1011.95 1011.67 1011.44 1011.22 1010.95 1010.59 1010.13 1009.56 1008.91 1008.22 1007.53 1006.89 1006.32 1005.85 1005.50 1005.26 1005.13 1005.09 1005.13 1005.25 1005.44 1005.71 1006.06 1006.50 1007.02 1007.60 1008.24 1008.89 1009.54
1021.30 1021.34 1021.23 1020.93 1020.42 1019.71 1018.82 1017.79 1016.69 1015.60 1014.57 1013.67 1012.93 1012.38 1011.99 1011.74 1011.57 1011.43 1011.26 1011.02 1010.68 1010.22 1009.67 1009.05 1008.39 1007.75 1007.16 1006.64 1006.21 1005.86 1005.61 1005.42 1005.30 1005.24 1005.24 1005.31 1005.46 1005.71 1006.06 1006.51 1007.04 1007.62 1008.24 1008.85
1021.11 1021.02 1020.76 1020.31 1019.65 1018.81 1017.83 1016.75 1015.65 1014.60 1013.66 1012.88 1012.29 1011.88 1011.64 1011.51 1011.45 1011.38 1011.26 1011.04 1010.71 1010.27 1009.74 1009.14 1008.53 1007.94 1007.40 1006.92 1006.52 1006.19 1005.91 1005.68 1005.48 1005.33 1005.22 1005.18 1005.22 1005.37 1005.63 1006.00 1006.45 1006.98 1007.54 1008.10
1020.50 1020.27 1019.88 1019.30 1018.54 1017.64 1016.62 1015.56 1014.51 1013.56 1012.74 1012.11 1011.67 1011.41 1011.30 1011.28 1011.29 1011.28 1011.19 1010.99 1010.67 1010.24 1009.73 1009.17 1008.59 1008.05 1007.55 1007.11 1006.73 1006.40 1006.10 1005.83 1005.57 1005.34 1005.15 1005.02 1004.96 1005.02 1005.18 1005.46 1005.84 1006.29 1006.78 1007.27
1019.49 1019.13 1018.63 1017.97 1017.17 1016.25 1015.28 1014.29 1013.36 1012.54 1011.88 1011.41 1011.12 1011.00 1010.99 1011.06 1011.13 1011.14 1011.07 1010.87 1010.56 1010.13 1009.63 1009.09 1008.54 1008.03 1007.56 1007.14 1006.78 1006.45 1006.14 1005.84 1005.54 1005.26 1005.00 1004.80 1004.67 1004.64 1004.72 1004.91 1005.19 1005.55 1005.95 1006.35
1018.22 1017.75 1017.17 1016.48 1015.69 1014.83 1013.94 1013.09 1012.31 1011.66 1011.17 1010.86 1010.71 1010.69 1010.77 1010.89 1010.98 1011.00 1010.92 1010.71 1010.39 1009.96 1009.45 1008.92 1008.38 1007.88 1007.42 1007.01 1006.65 1006.31 1005.99 1005.67 1005.36 1005.05 1004.76 1004.51 1004.33 1004.24 1004.24 1004.33 1004.52 1004.76 1005.05 1005.35
1016.88 1016.33 1015.72 1015.04 1014.31 1013.55 1012.81 1012.12 1011.52 1011.05 1010.72 1010.54 1010.50 1010.56 1010.68 1010.81 1010.90 1010.90 1010.79 1010.55 1010.20 1009.75 1009.23 1008.68 1008.14 1007.63 1007.16 1006.74 1006.36 1006.01 1005.68 1005.36 1005.03 1004.72 1004.42 1004.16 1003.95 1003.81 1003.74 1003.75 1003.82 1003.95 1004.11 1004.29
1015.69 1015.10 1014.49 1013.86 1013.23 1012.61 1012.03 1011.52 1011.11 1010.80 1010.61 1010.54 1010.57 1010.67 1010.79 1010.89 1010.93 1010.89 1010.72 1010.44 1010.04 1009.56 1009.01 1008.44 1007.87 1007.33 1006.83 1006.37 1005.97 1005.60 1005.25 1004.92 1004.60 1004.30 1004.01 1003.75 1003.53 1003.35 1003.23 1003.15 1003.13 1003.13 1003.17 1003.22
1014.81 1014.22 1013.65 1013.10 1012.59 1012.13 1011.72 1011.39 1011.14 1010.97 1010.89 1010.89 1010.95 1011.03 1011.12 1011.16 1011.13 1011.01 1010.78 1010.43 1009.99 1009.46 1008.87 1008.26 1007.65 1007.06 1006.52 1006.02 1005.57 1005.16 1004.79 1004.45 1004.13 1003.83 1003.56 1003.31 1003.08 1002.89 1002.71 1002.57 1002.44 1002.34 1002.25 1002.19
1014.33 1013.76 1013.25 1012.80 1012.43 1012.12 1011.89 1011.72 1011.61 1011.55 1011.55 1011.57 1011.62 1011.66 1011.68 1011.63 1011.52 1011.31 1011.00 1010.59 1010.09 1009.52 1008.89 1008.23 1007.57 1006.93 1006.33 1005.77 1005.26 1004.80 1004.38 1004.01 1003.68 1003.39 1003.11 1002.86 1002.63 1002.41 1002.20 1001.99 1001.78 1001.57 1001.38 1001.22
Thickness
5541 5535 5536 5541 5542 5546 5545 5544 5545 5550 5551 5549 5549 5557 5568 5570 5568 5570 5573 5575 5578 5581 5584 5583 5582 5581 5579 5578 5577 5577 5576 5575 5574 5573 5573 5574 5574 5575 5575 5576 5575 5574 5573 5572
5528 5531 5538 5537 5535 5534 5534 5535 5536 5540 5542 5540 5540 5549 5562 5563 5565 5569 5570 5572 5574 5575 5576 5576 5576 5575 5573 5572 5572 5571 5571 5570 5569 5568 5567 5568 5569 5568 5568 5568 5568 5568 5567 5566
5528 5531 5532 5530 5527 5527 5527 5527 5530 5531 5531 5532 5531 5546 5559 5561 5561 5565 5565 5566 5567 5568 5568 5569 5569 5568 5566 5566 5565 5566 5565 5564 5563 5562 5560 5560 5559 5559 5559 5560 5561 5561 5561 5560
5517 5520 5523 5523 5522 5523 5524 5526 5524 5524 5520 5520 5526 5529 5551 5553 5555 5560 5561 5558 5557 5558 5560 5560 5561 5560 5560 5560 5559 5558 5558 5557 5557 5556 5554 5554 5554 5553 5554 5553 5553 5554 5554 5553
5512 5512 5514 5516 5518 5517 5518 5517 5516 5516 5511 5509 5514 5513 5538 5544 5550 5556 5555 5552 5551 5552 5552 5553 5554 5554 5554 5553 5552 5552 5551 5550 5550 5549 5549 5548 5548 5547 5546 5546 5545 5546 5546 5545
5504 5504 5506 5509 5510 5510 5508 5506 5504 5499 5497 5499 5511 5510 5531 5534 5546 5550 5549 5546 5544 5543 5544 5545 5545 5545 5545 5544 5544 5544 5544 5543 5543 5543 5542 5542 5541 5540 5539 5539 5538 5538 5538 5537
5498 5499 5498 5500 5501 5500 5502 5496 5486 5484 5477 5492 5506 5508 5524 5533 5535 5538 5539 5537 5535 5534 5534 5534 5535 5535 5535 5535 5536 5536 5536 5536 5535 5535 5535 5535 5535 5534 5533 5533 5531 5531 5530 5530
5488 5492 5492 5491 5496 5493 5494 5497 5487 5483 5481 5489 5498 5500 5520 5528 5528 5527 5527 5527 5525 5523 5523 5524 5524 5525 5525 5526 5526 5527 5528 5528 5527 5527 5527 5527 5527 5526 5527 5526 5525 5524 5524 5524
5479 5487 5485 5485 5487 5488 5485 5483 5489 5479 5466 5473 5492 5498 5512 5521 5520 5518 5517 5516 5515 5514 5514 5514 5514 5514 5514 5515 5516 5517 5518 5518 5518 5519 5518 5518 5518 5518 5518 5518 5518 5517 5517 5516
5475 5478 5477 5474 5477 5478 5480 5477 5471 5469 5469 5475 5494 5501 5509 5517 5515 5512 5508 5506 5506 5504 5504 5504 5504 5504 5504 5505 5506 5507 5508 5509 5509 5509 5509 5509 5509 5510 5510 5510 5509 5509 5509 5508
5467 5467 5464 5464 5464 5469 5466 5467 5468 5464 5466 5471 5480 5500 5507 5508 5507 5502 5498 5496 5496 5494 5494 5494 5494 5494 5494 5494 5495 5496 5497 5498 5499 5499 5499 5500 5500 5500 5501 5500 5500 5500 5500 5499
5457 5454 5453 5458 5460 5462 5464 5466 5464 5465 5460 5460 5474 5489 5501 5495 5493 5490 5488 5487 5486 5485 5483 5482 5482 5483 5483 5483 5484 5485 5486 5487 5488 5489 5490 5490 5491 5491 5491 5491 5490 5490 5490 5490
5448 5444 5445 5452 5451 5446 5448 5452 5455 5458 5457 5451 5462 5483 5487 5481 5479 5478 5476 5475 5474 5473 5473 5471 5471 5471 5472 5473 5473 5474 5475 5476 5477 5478 5479 5480 5480 5480 5480 5480 5480 5479 5479 5479
5443 5434 5439 5452 5456 5444 5438 5439 5440 5444 5447 5451 5461 5474 5478 5474 5470 5467 5465 5464 5463 5462 5462 5461 5459 5459 5460 5461 5462 5463 5464 5466 5467 5467 5468 5469 5469 5469 5469 5469 5468 5468 5468 5467
5426 5422 5422 5430 5433 5430 5432 5434 5431 5434 5443 5450 5461 5459 5468 5463 5461 5458 5455 5453 5453 5453 5452 5451 5451 5450 5449 5450 5451 5452 5453 5454 5455 5456 5457 5458 5458 5458 5457 5457 5457 5457 5456 5456
5407 5407 5406 5410 5418 5418 5419 5425 5425 5427 5431 5435 5441 5448 5452 5449 5447 5444 5442 5441 5441 5441 5441 5441 5441 5440 5440 5440 5440 5440 5441 5442 5444 5445 5445 5446 5445 5446 5446 5445 5445 5445 5445 5444
5391 5389 5392 5399 5398 5404 5407 5425 5424 5420 5421 5427 5435 5447 5441 5436 5434 5432 5431 5430 5430 5431 5431 5430 5430 5429 5429 5428 5428 5428 5429 5430 5431 5432 5433 5433 5433 5433 5433 5434 5433 5433 5433 5432
5380 5378 5375 5373 5379 5390 5427 5426 5426 5423 5421 5418 5422 5425 5426 5425 5423 5421 5420 5419 5419 5420 5420 5419 5418 5417 5416 5415 5415 5416 5416 5417 5418 5419 5419 5420 5420 5421 5421 5421 5421 5420 5420 5419
5376 5372 5361 5358 5364 5381 5406 5407 5402 5406 5409 5409 5409 5411 5409 5409 5409 5409 5409 5408 5407 5407 5406 5405 5404 5404 5403 5402 5402 5402 5403 5403 5404 5405 5405 5406 5406 5407 5407 5408 5408 5407 5407 5406
5360 5361 5354 5346 5356 5365 5405 5396 5391 5398 5401 5401 5398 5399 5397 5396 5398 5402 5398 5395 5394 5393 5391 5390 5389 5389 5389 5389 5388 5389 5389 5390 5390 5391 5391 5392 5392 5393 5393 5394 5394 5393 5393 5393
5340 5339 5340 5340 5344 5362 5377 5376 5382 5386 5397 5389 5387 5387 5385 5383 5386 5384 5381 5379 5378 5377 5376 5376 5375 5375 5374 5373 5374 5374 5375 5375 5376 5376 5377 5377 5378 5378 5379 5379 5379 5378 5378 5378
5338 5331 5328 5329 5336 5358 5363 5361 5369 5373 5370 5369 5367 5366 5366 5365 5365 5364 5363 5362 5362 5361 5361 5361 5360 5360 5359 5358 5359 5360 5360 5360 5360 5361 5362 5363 5363 5363 5363 5363 5363 5362 5362 5362
5331 5338 5337 5338 5349 5348 5341 5343 5344 5345 5347 5347 5347 5346 5346 5346 5345 5345 5345 5346 5345 5345 5344 5344 5344 5344 5343 5342 5343 5344 5344 5344 5345 5346 5347 5347 5348 5348 5348 5348 5348 5347 5346 5346
5314 5313 5319 5319 5328 5326 5324 5324 5324 5326 5327 5327 5327 5327 5327 5327 5328 5328 5328 5328 5328 5327 5326 5326 5326 5326 5326 5325 5326 5326 5327 5328 5329 5330 5330 5331 5332 5332 5332 5332 5332 5332 5332 5331
5304 5298 5302 5306 5310 5308 5310 5308 5307 5307 5307 5306 5307 5308 5308 5309 5310 5309 5309 5310 5309 5309 5308 5308 5308 5308 5308 5308 5308 5308 5309 5310 5312 5313 5314 5314 5315 5316 5316 5316 5316 5317 5317 5316
5278 5278 5286 5300 5294 5292 5297 5294 5290 5289 5288 5288 5289 5289 5289 5290 5290 5290 5290 5290 5289 5289 5289 5289 5288 5289 5289 5289 5290 5291 5291 5292 5294 5296 5297 5297 5298 5298 5299 5299 5300 5302 5302 5303